This demonstration page uses our WeatherBlox Daily Observations layout. Learn more.

Left ArrowRight Arrow

41.86663, -103.66717

Hourly Observations for January 14, 2016

Temp ( °F °C ) Dew Point ( °F °C ) Humidity (%) Winds ( mph kmh ) Pressure ( in mb ) Visibility ( mi km ) Precip ( " mm )
12:53 am 00:53 Clear 28 -2.2 17 -8.3 63 63 W 10 17 29.68 1005 10 16 N/A
1:53 am 01:53 Clear 32 undefined 15 -9.4 50 50 W 14 22 29.66 1004 10 16 N/A
2:31 am 02:31 Clear 31 -0.6 14 -10 49 49 WNW 16 26 29.80 1009 10 16 N/A
2:53 am 02:53 Clear 32 undefined 14 -10 47 47 NW 14 22 29.66 1005 10 16 N/A
3:53 am 03:53 Clear 34 1.1 14 -10 44 44 NW 22 35 29.65 1004 10 16 N/A
4:53 am 04:53 Clear 38 3.3 15 -9.4 39 39 W 13 20 29.66 1004 10 16 N/A
5:53 am 05:53 Clear 39 3.9 18 -7.8 43 43 W 24 39 29.65 1004 10 16 N/A
6:53 am 06:53 Clear 38 3.3 18 -7.8 44 44 W 18 30 29.65 1004 10 16 N/A
7:53 am 07:53 Sunny 35 1.7 19 -7.2 52 52 W 16 26 29.66 1004 10 16 N/A
8:53 am 08:53 Sunny 37 2.8 19 -7.2 48 48 W 21 33 29.66 1004 10 16 N/A
9:53 am 09:53 Sunny 39 3.9 21 -6.1 48 48 W 25 41 29.63 1004 10 16 N/A
10:53 am 10:53 Sunny 40 4.4 23 -5 51 51 W 21 33 29.65 1004 10 16 N/A
11:53 am 11:53 Sunny 42 5.6 23 -5 47 47 WNW 18 30 29.64 1004 10 16 N/A
12:53 pm 12:53 Mostly Cloudy 41 5 23 -5 49 49 WNW 14 22 29.62 1003 10 16 N/A
1:53 pm 13:53 Cloudy 42 5.6 24 -4.4 49 49 WNW 17 28 29.61 1003 10 16 N/A
2:53 pm 14:53 Cloudy 41 5 25 -3.9 53 53 NW 20 31 29.62 1003 10 16 N/A
3:53 pm 15:53 Cloudy 40 4.4 25 -3.9 55 55 NW 22 35 29.67 1005 10 16 N/A
4:53 pm 16:53 Cloudy 37 2.8 29 -1.7 73 73 NNW 21 33 29.70 1006 10 16 N/A
5:53 pm 17:53 Cloudy 37 2.8 29 -1.7 73 73 NNW 22 35 29.71 1006 10 16 N/A
6:53 pm 18:53 Mostly Cloudy 36 2.2 29 -1.7 76 76 NW 17 28 29.73 1007 10 16 N/A
7:53 pm 19:53 Cloudy 36 2.2 29 -1.7 76 76 WNW 13 20 29.75 1007 10 16 N/A
8:53 pm 20:53 Cloudy 35 1.7 29 -1.7 78 78 WNW 9 15 29.74 1007 10 16 N/A
9:53 pm 21:53 Cloudy 35 1.7 28 -2.2 76 76 WNW 13 20 29.74 1007 10 16 N/A
10:53 pm 22:53 Mostly Cloudy 34 1.1 27 -2.8 76 76 WNW 10 17 29.75 1007 10 16 N/A
11:53 pm 23:53 Cloudy 34 1.1 27 -2.8 76 76 W 10 17 29.75 1007 10 16 N/A

Powered by AerisWeather